Regional Weather Roundup
Issued by NWS Jackson, KY

Home | Current Version | Previous Version | Graphics & Text | Print | Product List | Glossary On
Versions: 1 2 3 4 5 6 7 8 9 10 11 12 13 14 15 16 17 18 19 20 21 22 23 24 25 26 27
000
ASUS43 KJKL 291310
RWRJKL

EAST KENTUCKY HOURLY WEATHER ROUNDUP
NATIONAL WEATHER SERVICE JACKSON KY
900 AM EDT FRI APR 29 2016

NOTE: "FAIR" INDICATES FEW OR NO CLOUDS BELOW 12,000 FEET WITH
NO SIGNIFICANT WEATHER AND/OR OBSTRUCTIONS TO VISIBILITY.

* THESE REPORTS ARE NOT UNDER NWS QUALITY CONTROL AND MAY NOT
  REPORT WEATHER SUCH AS PRECIPITATION AND FOG.

KYZ079-080-083-085-087-088-110-112-115-119-120-291400
...EASTERN KENTUCKY...

CITY           SKY/WX    TMP DP  RH WIND       PRES   REMARKS
JACKSON        CLOUDY    61  53  75 CALM      30.05R
LONDON         MOSUNNY   58  54  86 CALM      30.05S
SOMERSET*      CLOUDY    55  55 100 CALM      30.06F
MONTICELLO*    MOSUNNY   59  55  87 CALM      30.06S
WILLIAMSBURG*  MOSUNNY   57  57 100 CALM      30.06F
MIDDLESBORO*   CLOUDY    58  54  85 CALM      30.07F
HARLAN APT*    CLOUDY    54  54 100 CALM      30.08R VSB<1/4
HAZARD APT*    SUNNY     63  55  77 CALM      30.06R
BLACK MTN*       N/A     59  50  72 W1          N/A
PIKE CO APT*     N/A     61  53  74 S3        30.04S
BIG SANDY APT* CLOUDY    61  55  80 SW3       30.04S
MOREHEAD APT*  PTSUNNY   57  52  82 W6        30.06R
$$

KYZ035-036-041-042-044-050-067-078-099-291400
...CENTRAL KENTUCKY...

CITY           SKY/WX    TMP DP  RH WIND       PRES   REMARKS
MT STERLING*   CLOUDY    59  54  82 NW5       30.06S
FLEMING/MASON* CLOUDY    55  55  99 W6        30.05S FOG
DANVILLE*      CLOUDY    59  52  77 NW6       30.06F
RICHMOND*      CLOUDY    59  52  77 W5        30.05S
LEXINGTON      CLOUDY    59  52  77 NW8       30.05S
FRANKFORT      CLOUDY    59  50  72 NW7       30.04R
LOUISVILLE     MOSUNNY   62  44  51 N8        30.04F
LEBANON*         N/A     57  52  82 NW6       30.05F
BOWLING GREEN  SUNNY     62  54  74 NE7       30.04S
$$

KYZ091>093-OHZ055-061-077-WVZ005-015-034-035-042-291400
...SOUTHERN OHIO/WEST VIRGINIA...

CITY           SKY/WX    TMP DP  RH WIND       PRES   REMARKS
COVINGTON      MOSUNNY   57  51  80 W10       30.02S
COLUMBUS       CLOUDY    50  48  93 NW9       30.00S FOG
DAYTON         FOG       48  48 100 N5        30.04R VSB 1/2
WILMINGTON     CLOUDY    53  52  96 NW8       30.01F FOG
HUNTINGTON       N/A     59  54  83 SW6       30.01S
CHARLESTON     PTSUNNY   61  57  87 SW7       30.01S
PINEVILLE*       N/A     58  56  91 MISG      30.09F
BECKLEY          N/A     59  53  80 W7        30.05R
$$

VAZ002-007-008-TNZ017-027-036-066-071-291400
...SOUTHWEST VIRGINIA/EAST TENNESSEE...

CITY           SKY/WX    TMP DP  RH WIND       PRES   REMARKS
WISE*            N/A     61  43  51 CALM      30.09S
BRISTOL        CLOUDY    61  57  87 CALM      30.06S
MORRISTOWN*    SUNNY     64  55  72 SW3       30.06S
SEVIERVILLE*   SUNNY     61  55  82 CALM      30.06S
KNOXVILLE      CLOUDY    64  56  75 CALM      30.04F
OAK RIDGE      CLOUDY    65  54  67 CALM      30.06F
CROSSVILLE     CLOUDY    66  51  58 SE3       30.07S
NASHVILLE      MOSUNNY   66  58  75 CALM      30.04R
$$

...KEY TO REMARKS...
VSB - VISIBILITY IN MILES
WCI - WIND CHILL INDEX
HX  - HEAT INDEX

$$




USA.gov is the U.S. government's official web portal to all federal, state and local government web resources and services.